Location: ????????
(55.1591°N, 39.1782°E)
Time: 16:03:13
(UTC+00:00)

Cosmos 1766 - Pass Details

Date: 14 April 2024
Orbit: 487 x 504 km, 82.5° (Epoch: 24 May)

Event Time Altitude Azimuth Distance (km) Brightness Sun altitude
Rises 01:16:47 0° 349° (N) 2,588 7.0 -9.2°
Reaches altitude 10° 01:18:55 10° 352° (N) 1,698 6.1 -9.0°
Maximum altitude 01:22:37 71° 77° (ENE) 524 3.4 -8.5°
Drops below altitude 10° 01:26:17 10° 162° (SSE) 1,676 5.7 -8.0°
Sets 01:28:22 0° 164° (SSE) 2,551 6.6 -7.8°
